Language selection

Features

My Weather Profile Weather Topics  | 

Puvirnituq - northern half: Past 24 Hour Conditions

 

Churchill Airport

01:00 PM CDT 11 April 2021
Disclaimer

This table is a summary of hourly weather conditions for the past 24 hours.
Please note that these observations might not always be representative of weather conditions over their associated marine area.

Date / Time
(CDT)
Wind(knots) Conditions Visibility(km) Pressure(kPa) Air tempC) Relative humidity(%) Dew pointC) Wind Chill
11 April 2021
13:00 NNW 16 Mostly Cloudy 24 102.9 -14 84 -16 -25
12:00 NNW 15 Mostly Cloudy 24 102.8 -14 83 -17 -25
11:00 NNW 16 Partly Cloudy 24 102.8 -14 83 -17 -25
10:00 NNW 15 Mostly Cloudy 24 102.7 -15 84 -17 -25
9:00 NNW 13 gust 21 Light Snow 19 102.7 -15 85 -17 -25
8:00 N 12 gust 18 Light Snow 13 102.6 -15 87 -17 -25
7:00 NW 11 Cloudy 13 102.6 -17 85 -19 -27
6:00 N 15 Light Snow 16 102.4 -15 88 -16 -25
5:00 N 15 gust 21 Light Snow 13 102.3 -14 87 -16 -25
4:00 NNW 11 gust 18 Light Snow 10 102.3 -15 88 -17 -25
3:00 N 13 Light Snow 13 102.2 -13 87 -15 -23
2:00 N 15 gust 21 Light Snow 13 102.1 -13 86 -14 -22
1:00 NNW 15 gust 20 Light Snow 13 102.1 -12 86 -14 -22
0:00 NNW 15 gust 21 Light Snow 10 102.0 -12 86 -14 -22
10 April 2021
23:00 NNW 16 Light Snow 10 102.0 -12 87 -14 -22
22:00 NNW 18 Light Snow 13 101.9 -12 87 -13 -22
21:00 NNW 15 Light Snow 13 101.9 -12 86 -14 -21
20:00 NNW 16 Light Snow 13 101.7 -11 86 -13 -21
19:00 NNW 15 gust 21 Light Snow 19 101.6 -11 86 -13 -21
18:00 NNW 13 gust 20 Light Snow 19 101.6 -11 86 -13 -20
17:00 NW 15 gust 22 Light Snow 10 101.5 -11 85 -13 -20
16:00 NNW 16 Light Snow 10 101.4 -11 83 -13 -20
15:00 NNW 16 gust 22 Light Snow 19 101.4 -11 84 -13 -21
14:00 NW 16 Light Snow 19 101.3 -11 82 -14 -21
13:00 NW 15 Light Snow 19 101.3 -12 82 -14 -21

Zoom-in to make a selection

Map of Hudson - Hudson Bay marine weather areas Arviat Airport Baker Lake Airport Chesterfield Inlet Airport Coral Harbour Airport Rankin Inlet Airport Sanikiluaq Airport Whale Cove Airport Kinngait (Cape Dorset Airport) Iqaluit Airport Wager Bay Kimmirut Airport Churchill Airport Fort Severn Airport Peawanuck Airport Moosonee Airport Eastmain Airport La Grande Rivière Airport Waskaganish Airport Wemindji Airport Akulivik Airport Inukjuak Airport Ivujivik Airport Kuujjuarapik Airport Puvirnituq Airport Umiujaq Airport Aupaluk Airport Kangiqsujuaq Airport Kangirsuk Airport Kangiqsualujjuaq Airport Kuujjuaq Airport Quaqtaq Airport Salluit Airport Tasiujaq Airport Cape Kakkiviak
Legend:
buoy Buoy
land station Land Station

Hudson - Hudson Bay Area

Another Region

What we are doing

Date modified: